Wind_Speed
23 21 21 13 11 11 13 18 23 16 16 18 16 15 7 14 20 22 21 16 10 6 7 10 10 9 4 2 2 3 2 4 6 7 9 13 17 19 18 15 15 14 13 11
22 23 9 8 9 11 14 20 19 20 16 13 15 15 16 19 22 22 24 21 16 12 13 14 12 11 7 2 2 3 1 4 6 7 10 13 15 20 20 19 19 20 13 10
17 6 10 8 9 11 15 16 22 24 24 13 18 23 20 20 20 17 15 20 22 14 13 17 12 14 9 6 2 1 1 3 5 5 7 13 17 21 21 21 21 21 18 11
13 14 13 11 13 11 15 14 17 28 19 12 12 18 30 18 25 21 16 13 16 15 13 15 15 14 15 10 8 3 1 1 3 3 4 8 10 13 18 21 23 23 18 13
4 4 7 13 13 14 16 19 25 21 20 17 15 11 34 30 17 26 17 11 10 13 10 10 11 17 15 14 9 7 4 2 1 3 6 9 12 14 17 22 25 24 18 13
17 15 14 12 13 14 17 21 19 19 17 8 18 7 24 18 26 23 8 4 5 9 10 9 13 21 19 17 13 7 5 4 4 4 4 8 10 14 17 21 23 24 21 16
18 19 15 15 16 12 13 13 6 4 4 7 8 10 15 22 22 14 6 3 5 9 11 12 17 23 22 17 15 7 3 3 5 5 5 7 8 11 15 19 23 24 24 19
20 19 6 3 7 8 16 19 6 4 3 10 13 7 13 15 14 7 4 5 1 1 6 10 11 19 19 17 12 8 9 5 5 6 5 6 9 10 15 19 21 24 24 21
13 24 23 22 20 17 22 18 15 9 8 2 8 13 13 6 12 8 8 13 10 4 4 7 15 17 21 14 10 10 13 10 5 9 8 8 10 8 11 15 18 23 25 24
9 17 20 21 19 19 15 12 6 5 2 3 5 10 13 10 14 14 13 16 16 11 10 2 12 18 15 14 14 11 13 10 7 10 10 11 11 11 11 14 14 17 22 23
7 10 14 15 14 11 11 13 10 7 7 6 2 7 11 13 15 18 16 16 14 17 14 17 9 15 19 16 14 10 13 15 11 11 13 12 14 14 13 13 12 13 16 17
9 11 17 18 16 17 16 11 8 7 5 7 4 17 13 17 18 16 10 10 12 11 12 11 16 14 22 22 20 16 17 17 15 10 11 14 15 16 15 14 13 13 15 14
16 7 10 9 11 9 11 4 2 3 4 9 5 8 6 8 11 13 14 13 12 12 8 7 9 17 19 19 17 19 21 18 17 11 11 13 17 16 14 13 13 14 15 16
19 16 15 15 13 12 15 12 9 7 8 8 12 16 11 11 15 11 14 15 15 15 12 7 10 17 18 19 20 21 18 19 19 17 12 11 17 16 14 13 14 15 15 16
11 18 21 24 23 22 23 24 21 18 16 16 20 21 17 17 17 18 19 18 14 17 16 9 9 16 22 20 22 25 24 19 16 17 14 11 14 16 17 16 16 15 15 15
17 14 18 28 25 28 30 31 32 31 29 27 24 29 26 25 22 19 16 19 14 15 17 11 11 14 18 19 18 23 25 28 28 18 20 18 16 15 15 14 15 16 16 16
25 24 17 16 9 11 20 30 34 37 39 33 27 23 20 20 21 24 19 19 20 21 19 16 11 11 13 15 19 19 17 21 26 23 21 19 19 17 16 15 15 15 14 15
18 14 11 13 14 5 14 12 11 18 23 22 22 19 21 20 18 16 17 18 20 23 23 18 13 11 13 18 22 22 20 24 18 24 25 23 22 21 20 21 21 20 16 13
10 9 7 6 8 18 24 16 15 13 19 19 18 16 16 16 15 15 18 20 26 18 25 21 17 14 15 19 25 25 22 23 27 15 12 25 21 16 18 20 16 20 25 21
13 10 11 11 7 4 2 4 9 14 21 16 15 16 20 23 21 17 22 20 24 23 25 23 19 17 17 18 25 25 24 23 20 12 20 23 21 17 20 19 14 9 3 11
15 19 17 19 15 13 19 19 14 15 10 13 15 16 17 15 21 21 21 21 24 27 28 26 24 16 14 19 23 26 25 27 20 14 18 18 20 21 23 19 16 16 14 13
18 13 11 8 9 11 10 11 15 18 18 24 20 20 19 17 18 19 18 18 21 25 28 25 24 17 13 17 22 25 26 24 23 18 20 23 22 22 19 17 17 15 14 13
11 11 8 10 10 10 12 22 24 24 22 20 23 21 23 19 22 20 18 18 20 27 27 26 21 19 16 15 15 22 25 24 24 21 20 20 20 18 17 16 16 15 15 16
18 19 25 29 34 28 28 28 25 22 23 25 23 23 24 24 21 23 23 21 21 24 29 25 21 21 20 14 12 15 21 23 23 21 20 18 17 16 16 16 15 15 15 15
26 27 27 29 28 27 24 24 28 27 24 26 23 22 25 25 25 25 24 24 21 20 27 29 29 24 25 16 13 13 15 19 20 21 20 17 17 18 17 15 13 13 12 13
22 27 24 31 25 24 27 19 26 27 27 17 17 20 19 23 24 26 26 26 20 20 25 29 25 26 25 19 14 14 13 13 16 17 18 18 18 17 14 13 11 12 13 12
Wind_Direction
214 226 239 223 234 265 294 311 317 336 343 331 311 294 318 289 283 291 287 288 276 270 228 241 232 225 139 63 336 233 280 300 304 272 239 223 219 212 205 189 179 162 152 162
217 234 221 224 239 267 297 312 328 339 333 315 324 313 302 287 296 300 282 278 269 257 234 224 233 211 187 271 302 240 308 319 327 303 225 202 198 197 194 187 179 173 172 173
227 167 199 228 242 277 300 307 331 330 334 312 314 306 313 317 314 310 307 273 258 246 234 230 229 181 192 171 259 269 292 324 341 291 213 203 197 189 186 186 182 178 177 181
258 219 232 244 259 288 301 331 321 329 328 305 312 304 311 321 326 353 335 297 255 242 242 224 219 196 189 208 233 195 156 8 350 245 185 182 196 195 184 181 181 177 183 180
245 341 253 258 261 295 293 313 315 318 316 309 299 286 299 305 315 339 337 323 237 233 250 217 196 187 192 225 219 225 158 135 263 235 177 185 180 180 180 182 180 180 179 182
271 276 273 267 260 278 298 303 308 301 294 293 304 288 294 306 323 336 326 322 200 219 240 200 191 194 199 225 243 185 148 139 206 212 176 191 192 181 181 179 183 187 191 187
285 286 283 266 274 267 286 308 309 324 320 233 305 300 289 316 332 336 309 343 183 181 209 204 203 199 196 207 230 244 175 141 197 214 187 194 204 178 183 182 186 195 196 193
280 299 23 18 252 270 313 310 255 237 235 272 299 270 297 322 347 331 281 307 287 244 214 193 195 200 192 198 235 239 212 206 206 205 203 182 180 175 175 185 193 193 193 200
279 282 294 284 292 296 309 287 298 269 263 276 281 283 305 331 352 320 279 297 302 266 92 194 182 184 190 189 190 184 198 204 207 200 201 194 182 187 180 181 191 198 197 199
275 275 289 292 289 296 276 276 288 251 197 230 275 286 282 314 317 324 302 317 307 290 251 182 216 200 198 197 210 207 207 201 195 200 197 199 195 195 197 184 183 187 197 204
302 280 296 295 297 293 252 270 262 267 239 174 205 268 306 317 318 304 305 293 310 304 298 255 262 221 202 197 209 216 213 212 209 200 197 200 203 204 207 206 203 198 203 210
291 292 288 284 282 272 267 249 240 237 220 219 221 265 269 285 296 310 320 277 281 280 284 261 267 223 206 206 207 226 216 212 209 198 200 203 204 211 211 209 209 211 207 217
301 293 313 295 262 232 198 189 209 230 240 239 185 251 217 266 291 286 284 289 261 269 284 237 222 207 204 202 212 209 207 201 204 208 201 206 205 211 212 206 212 216 216 225
300 284 269 259 269 265 273 259 264 251 248 239 242 279 280 275 269 277 289 274 263 258 261 254 211 212 214 210 203 200 189 197 197 204 203 204 208 208 207 209 214 219 225 228
289 281 275 271 269 265 269 272 274 263 255 261 263 270 278 290 274 270 279 284 265 253 251 238 212 205 211 204 201 205 206 198 204 212 206 192 200 203 206 206 215 224 231 237
301 287 291 280 272 267 269 259 263 270 268 268 269 266 273 278 278 277 263 262 252 246 258 230 206 199 210 211 203 210 217 229 226 224 205 199 196 202 212 220 232 240 241 242
292 289 286 282 294 269 267 268 262 263 264 266 255 262 251 257 263 269 280 266 264 239 241 245 234 213 219 216 207 217 215 194 211 227 204 210 210 211 213 221 228 234 238 243
275 284 270 275 282 246 277 234 225 241 240 231 233 234 245 249 241 242 258 263 262 249 224 236 250 225 221 209 204 210 210 224 225 225 214 203 215 214 220 246 246 229 225 249
250 242 249 253 233 280 278 250 260 252 238 247 264 261 261 266 256 246 237 257 256 255 227 234 242 238 231 219 206 204 210 212 225 220 229 207 216 214 226 229 253 251 242 235
247 256 277 262 258 259 325 235 257 278 268 276 279 280 281 278 279 249 247 238 245 252 240 228 233 235 227 215 210 206 211 215 226 215 222 194 201 213 231 238 249 252 308 232
254 283 276 260 253 254 256 256 245 271 281 275 273 284 291 293 273 264 263 264 250 243 223 216 227 228 222 220 214 214 207 213 222 227 217 207 218 223 224 234 236 250 258 251
279 274 259 257 241 251 255 238 237 248 240 250 258 269 271 278 272 255 249 267 265 217 204 209 220 224 226 230 216 216 217 212 217 226 222 216 221 223 228 236 245 247 254 256
277 242 248 240 242 256 245 289 282 286 262 248 246 260 271 271 258 268 254 250 257 226 209 210 218 218 225 221 222 220 217 212 214 225 224 223 221 220 225 232 238 242 254 267
279 279 280 287 282 282 271 271 265 271 264 254 256 255 257 260 257 253 251 239 243 247 224 216 225 214 225 221 216 220 214 213 218 220 219 220 225 228 227 225 234 249 262 273
297 299 299 287 284 287 275 267 248 254 254 245 251 259 259 254 247 246 246 245 238 246 237 232 240 226 215 211 207 214 212 215 215 213 219 214 214 217 223 230 244 258 262 263
304 307 291 288 300 290 285 275 244 245 252 255 265 262 265 248 246 243 243 245 250 239 240 233 230 214 208 201 195 199 207 208 208 208 209 212 217 221 226 235 239 249 256 261
Height
3171 3172 3172 3174 3176 3176 3175 3174 3171 3168 3168 3165 3162 3161 3160 3160 3159 3158 3157 3158 3159 3160 3163 3165 3167 3169 3170 3170 3171 3171 3171 3172 3171 3170 3171 3174 3176 3179 3183 3187 3190 3193 3195 3198
3171 3168 3171 3172 3174 3174 3173 3171 3168 3166 3165 3163 3161 3159 3158 3157 3155 3154 3154 3153 3155 3156 3158 3162 3164 3166 3168 3169 3169 3169 3169 3170 3168 3168 3168 3170 3172 3177 3181 3186 3189 3192 3195 3198
3167 3168 3168 3170 3171 3171 3171 3170 3168 3167 3162 3161 3157 3153 3154 3153 3152 3150 3149 3148 3150 3152 3155 3158 3161 3163 3166 3167 3167 3167 3168 3168 3167 3167 3168 3169 3171 3175 3179 3184 3187 3192 3195 3197
3166 3165 3166 3167 3168 3170 3167 3168 3166 3164 3162 3160 3158 3152 3148 3148 3148 3146 3144 3143 3144 3147 3150 3153 3156 3160 3164 3165 3167 3166 3166 3166 3166 3168 3168 3169 3172 3176 3179 3183 3187 3192 3195 3198
3164 3164 3166 3166 3167 3167 3167 3166 3164 3162 3160 3159 3157 3155 3145 3146 3144 3143 3141 3139 3140 3143 3145 3148 3152 3156 3160 3162 3164 3166 3164 3164 3166 3167 3168 3169 3171 3174 3178 3182 3186 3190 3194 3198
3161 3163 3164 3163 3164 3164 3165 3163 3161 3159 3158 3157 3154 3155 3141 3143 3142 3139 3137 3137 3137 3139 3142 3145 3148 3152 3155 3158 3160 3160 3163 3163 3165 3167 3168 3170 3171 3174 3177 3181 3186 3189 3193 3197
3160 3159 3159 3160 3160 3162 3161 3161 3160 3159 3158 3155 3152 3151 3145 3143 3142 3139 3138 3137 3136 3137 3139 3142 3143 3147 3151 3155 3157 3160 3163 3163 3165 3166 3167 3170 3172 3173 3177 3181 3185 3189 3192 3195
3158 3156 3155 3156 3158 3159 3158 3159 3159 3160 3160 3152 3150 3146 3142 3141 3139 3138 3138 3138 3138 3139 3139 3142 3143 3146 3149 3153 3156 3158 3161 3163 3164 3165 3166 3169 3171 3173 3177 3180 3184 3187 3191 3194
3156 3150 3152 3153 3155 3158 3155 3154 3154 3152 3150 3151 3147 3144 3141 3139 3138 3138 3138 3138 3138 3139 3138 3140 3143 3144 3147 3150 3154 3154 3159 3161 3162 3163 3165 3168 3170 3173 3175 3178 3181 3185 3189 3192
3153 3149 3148 3149 3150 3151 3150 3151 3150 3149 3151 3150 3144 3142 3139 3138 3137 3137 3137 3137 3137 3138 3137 3139 3141 3144 3146 3148 3152 3155 3157 3159 3160 3161 3164 3166 3169 3171 3174 3176 3179 3183 3187 3190
3150 3148 3147 3146 3146 3146 3147 3146 3146 3147 3146 3145 3147 3140 3139 3138 3137 3134 3134 3134 3135 3135 3135 3136 3137 3139 3142 3145 3148 3150 3153 3156 3158 3160 3162 3165 3167 3170 3172 3175 3177 3181 3185 3189
3147 3145 3143 3143 3144 3143 3142 3141 3141 3142 3142 3141 3140 3137 3137 3136 3135 3133 3132 3132 3133 3132 3132 3133 3133 3135 3138 3142 3145 3148 3150 3153 3156 3158 3160 3163 3165 3168 3170 3173 3176 3179 3182 3186
3144 3142 3141 3139 3141 3138 3138 3138 3138 3138 3137 3136 3136 3134 3133 3133 3133 3132 3131 3130 3130 3130 3130 3130 3130 3132 3135 3138 3141 3143 3147 3151 3154 3157 3158 3161 3164 3167 3170 3172 3175 3177 3180 3183
3140 3139 3139 3137 3137 3135 3134 3133 3134 3133 3134 3130 3132 3130 3130 3130 3129 3130 3129 3128 3129 3127 3127 3128 3128 3130 3133 3135 3137 3142 3145 3148 3151 3155 3157 3158 3162 3166 3169 3171 3173 3176 3177 3180
3135 3133 3133 3131 3131 3130 3129 3128 3128 3128 3129 3127 3127 3126 3126 3127 3126 3126 3126 3125 3125 3126 3125 3126 3126 3128 3130 3132 3135 3140 3144 3146 3149 3152 3155 3157 3161 3164 3167 3169 3172 3173 3175 3177
3129 3126 3124 3120 3123 3123 3120 3120 3120 3119 3120 3119 3121 3118 3120 3122 3123 3122 3122 3122 3122 3123 3124 3125 3124 3125 3128 3131 3135 3137 3140 3143 3146 3149 3152 3154 3157 3160 3164 3167 3169 3170 3171 3173
3122 3120 3120 3113 3114 3115 3111 3108 3111 3110 3110 3111 3111 3113 3114 3116 3116 3118 3118 3117 3117 3118 3120 3122 3122 3124 3126 3130 3132 3133 3138 3138 3143 3146 3150 3154 3154 3156 3159 3163 3164 3166 3167 3168
3115 3115 3115 3111 3111 3111 3103 3103 3103 3101 3102 3103 3104 3106 3107 3108 3110 3112 3111 3112 3112 3111 3114 3117 3119 3120 3121 3124 3128 3130 3133 3134 3138 3142 3142 3147 3152 3153 3155 3159 3161 3159 3160 3163
3111 3111 3111 3110 3107 3102 3101 3102 3100 3099 3099 3099 3100 3101 3101 3102 3103 3106 3105 3106 3106 3107 3109 3111 3114 3116 3117 3119 3123 3127 3128 3132 3134 3136 3141 3146 3148 3147 3152 3146 3156 3154 3157 3160
3109 3108 3109 3107 3106 3102 3099 3098 3098 3096 3095 3097 3097 3097 3097 3097 3098 3099 3098 3098 3099 3101 3104 3107 3110 3112 3114 3115 3118 3122 3124 3125 3130 3136 3140 3123 3143 3145 3148 3150 3150 3155 3155 3155
3105 3103 3102 3100 3099 3094 3093 3095 3096 3096 3097 3092 3092 3092 3092 3093 3092 3093 3093 3092 3092 3093 3096 3101 3105 3109 3110 3112 3114 3117 3120 3122 3126 3130 3134 3136 3138 3141 3144 3146 3147 3151 3153 3153
3100 3099 3096 3095 3093 3090 3087 3088 3090 3087 3085 3086 3086 3086 3086 3087 3086 3087 3087 3086 3087 3088 3090 3095 3101 3104 3105 3108 3110 3113 3115 3119 3121 3124 3127 3129 3132 3135 3138 3142 3145 3147 3148 3149
3094 3093 3091 3091 3085 3084 3083 3083 3082 3080 3080 3080 3078 3079 3079 3080 3080 3080 3081 3081 3081 3083 3086 3091 3097 3100 3102 3105 3107 3110 3114 3115 3116 3118 3122 3125 3127 3130 3134 3138 3140 3143 3144 3144
3088 3087 3083 3083 3074 3076 3075 3075 3074 3072 3072 3073 3073 3071 3071 3073 3073 3074 3074 3075 3075 3078 3083 3088 3091 3096 3099 3102 3104 3107 3109 3112 3113 3116 3119 3122 3125 3128 3131 3133 3135 3137 3139 3140
3082 3079 3074 3069 3068 3066 3065 3065 3064 3064 3065 3065 3065 3065 3065 3066 3066 3066 3068 3068 3070 3074 3076 3082 3086 3091 3094 3097 3100 3103 3106 3110 3112 3115 3118 3119 3122 3125 3127 3129 3131 3133 3135 3135
3075 3072 3068 3061 3062 3057 3054 3057 3055 3056 3058 3059 3059 3060 3059 3059 3059 3060 3063 3063 3064 3069 3071 3076 3081 3086 3091 3092 3095 3099 3103 3109 3111 3113 3115 3118 3119 3120 3123 3125 3128 3129 3130 3131